Weather History for KSFB - January, 2013

Change the Weather History Date:

Thursday, January 31, 2013

  Actual Average Record
Temperature  
Mean Temperature 60 °F -  
Max Temperature 71 °F 72 °F 86 °F (1991)
Min Temperature 43 °F 47 °F 26 °F (1966)
Degree Days  
Heating Degree Days 6    
Growing Degree Days 10 (Base 50)    
Moisture  
Dew Point 40 °F    
Average Humidity 58    
Maximum Humidity 94    
Minimum Humidity 20    
Precipitation  
Precipitation 0.03 in - - ()
Sea Level Pressure  
Sea Level Pressure 30.10 in    
Wind  
Wind Speed 13 mph (NW)    
Max Wind Speed 26 mph    
Max Gust Speed 36 mph    
Visibility 10 miles    
Events Rain    
Averages and records for this station are not official NWS values.
T = Trace of Precipitation, MM = Missing Value Source: NWS Daily Summary

Daily Weather History Graph

Daily Weather History Graph

Search for Another Location

Airport or City:

Trip Planner

Search our weather history database for the weather conditions in past years. The results will help you decide how hot, cold, wet, or windy it might be!

Date:

Astronomy

Jan. 31, 2013 Rise Set
Actual Time 7:13 AM EST 6:03 PM EST
Civil Twilight 6:48 AM EST 6:28 PM EST
Nautical Twilight 6:20 AM EST 6:56 PM EST
Astronomical Twilight 5:52 AM EST 7:24 PM EST
Moon 10:34 PM EST (1/31) 9:39 AM EST (1/31)
Length of Visible Light 11h 39m
Length of Day
10h 49m
Waning Gibbous, 80% of the Moon is Illuminated
Jan 31
Waning Gibbous
Feb 3
Last Quarter
Feb 10
New
Feb 17
First Quarter
Feb 25
Full

Hourly Weather History & Observations

Time (EST) Temp. Windchill Dew Point Humidity Pressure Visibility Wind Dir Wind Speed Gust Speed Precip Events Conditions
12:53 AM 71.1 °F - 63.0 °F 75% 29.90 in 10.0 mi SSW 16.1 mph 25.3 mph N/A   Clear
1:53 AM 64.9 °F - 61.0 °F 87% 29.95 in 7.0 mi WNW 26.5 mph 35.7 mph 0.00 in Rain Light Rain
2:24 AM 62.6 °F - 57.2 °F 82% 29.96 in 8.0 mi West 17.3 mph 20.7 mph 0.01 in Rain Light Rain
2:53 AM 59.0 °F - 55.9 °F 90% 29.98 in 7.0 mi NW 17.3 mph - 0.01 in Rain Light Rain
3:26 AM 53.6 °F - 51.8 °F 94% 30.00 in 9.0 mi WNW 13.8 mph 23.0 mph 0.01 in Rain Light Rain
3:34 AM 53.6 °F - 51.8 °F 94% 30.00 in 10.0 mi WNW 11.5 mph - 0.01 in Rain Light Rain
3:53 AM 54.0 °F - 51.1 °F 90% 30.00 in 9.0 mi WNW 6.9 mph - 0.01 in Rain Light Rain
4:53 AM 54.0 °F - 51.1 °F 90% 30.01 in 10.0 mi WNW 4.6 mph - 0.01 in Rain Light Rain
5:53 AM 55.0 °F - 50.0 °F 83% 30.02 in 10.0 mi WNW 6.9 mph - 0.00 in Rain Light Rain
6:53 AM 55.0 °F - 48.9 °F 80% 30.06 in 10.0 mi NW 10.4 mph - 0.00 in   Overcast
7:53 AM 54.0 °F - 44.1 °F 69% 30.09 in 10.0 mi NW 15.0 mph - N/A   Clear
8:53 AM 55.0 °F - 44.1 °F 67% 30.12 in 10.0 mi NW 9.2 mph - N/A   Clear
9:53 AM 57.0 °F - 43.0 °F 59% 30.14 in 10.0 mi WNW 9.2 mph - N/A   Clear
10:53 AM 57.9 °F - 39.0 °F 49% 30.16 in 10.0 mi WNW 12.7 mph - N/A   Clear
11:53 AM 59.0 °F - 33.1 °F 38% 30.15 in 10.0 mi NNW 11.5 mph - N/A   Clear
12:53 PM 61.0 °F - 32.0 °F 34% 30.14 in 10.0 mi North 12.7 mph - N/A   Clear
1:53 PM 63.0 °F - 34.0 °F 34% 30.13 in 10.0 mi Variable 6.9 mph - N/A   Clear
2:53 PM 63.0 °F - 27.0 °F 26% 30.13 in 10.0 mi WNW 11.5 mph 16.1 mph N/A   Clear
3:53 PM 64.0 °F - 28.9 °F 27% 30.14 in 10.0 mi NW 9.2 mph - N/A   Clear
4:53 PM 63.0 °F - 21.0 °F 20% 30.14 in 10.0 mi NNW 9.2 mph - N/A   Clear
5:53 PM 59.0 °F - 23.0 °F 25% 30.15 in 10.0 mi WNW 5.8 mph - N/A   Clear
6:53 PM 55.0 °F - 25.0 °F 31% 30.17 in 10.0 mi NW 6.9 mph - N/A   Clear
7:53 PM 52.0 °F - 28.0 °F 40% 30.20 in 10.0 mi WNW 4.6 mph - N/A   Clear
8:53 PM 53.1 °F - 28.0 °F 38% 30.21 in 10.0 mi NNW 8.1 mph - N/A   Clear
9:53 PM 52.0 °F - 30.0 °F 43% 30.24 in 10.0 mi NNW 6.9 mph - N/A   Clear
10:53 PM 48.9 °F - 32.0 °F 52% 30.24 in 10.0 mi NW 5.8 mph - N/A   Clear
11:53 PM 43.0 °F 40.3 °F 30.9 °F 62% 30.24 in 10.0 mi NW 4.6 mph - N/A   Clear